NOAA 16 DEB, 42368

Orbit data source: Space-Track

NOAA 16 DEB, 42368 is space debris in LEO originally from a launch on Thu, 21 Sep 2000 UTC launched from the Air Force Western Test Range (AFWTR). Debris objects in space refer to the collection of defunct objects orbiting the Earth. Examples of debris include non-operational satellites, rocket bodies, and fragments generated from explosions, collisions, or faulty payload assembly.

Loading next visibility...
NOAA 16 DEB details
Identifier
42368, 2000-055RL
Orbit
LEO
Last TLE update20 hours ago
Origin
Flag of USNOAA (US)
ManufacturerUnknown
MissionSpacecraft
Bus & MotorUnknown
MassUnknown
Launch date (UTC)
2000-09-21 (24 years ago)
Launch vehicleUnknown
Launch site
Air Force Western Test Range (AFWTR)
Object type
Payload
Rocket body
Debris
Shape & HBRUnknown
Radar Cross SectionSmall (<0.1 m²)

Expand to show TLE details & history

TLE from 20 hours ago
0 NOAA 16 DEB
1 42368U 00055RL  24336.46879133  .00011013  00000-0  49048-2 0  9995
2 42368  98.7512  48.7640 0011800 252.8477 107.1409 14.22940922447025
Epoch: 2024-12-01T11:15Z
Definitive object data (Epoch: 2024-12-01T11:15:03.57Z)
Latitude-0.00006°
Longitude169.19257°
Altitude820.852 km
Speed7.441 km/s
True Right ascension03h 15m 03s
True Declination0° 00' 00"
Sunlit
Object was in full shadow at TLE epoch
Visualization TLE readout
Latitude-28.80379°
Longitude174.85481°
Altitude824.711 km
Speed7.44 km/s
Apparent Right ascension00h 32m 13s
Apparent Declination-70° 56' 47"
Sunlit
Object is in full shadow
Visualization observer readout
Local Sidereal Time05:08:00
Azimuth200.843° SSW
Elevation-31.103°
Doppler factor1
Orbital elements
Apogee altitude821.066 km
Perigee altitude804.096 km
Semi-major axis7,190.718 km
Eccentricity0.00118
Inclination98.7512°
RAAN48.764°
Arg. of periapsis252.8477°
True anomaly107.27006°
Mean anomaly107.1409°
Eccentric anomaly107.20548°
Mean motion3.55947 °/min
BSTAR0.0049048
Orbital period101.14 mins
Loading maneuver chart data...
Loading historical data...
Loading historical data...
Loading historical data...
Loading historical data...
Loading historical data...
Loading historical data...
Loading historical data...

NOAA 16 DEB Visibility forecast

Observer location: undefined°, undefined

Span
Click to sort rows by Start time (UTC) header in descending order
Start Az.
Max El. time (UTC)
Max El. Az.
Max El.
End time (UTC)
End Az.
5 mins2024-12-02 16:33:57.274Z63.117° ENE2024-12-02 16:35:57.274Z86.566° E14.091°2024-12-02 16:38:57.274Z121.966° SE
8 mins2024-12-02 18:12:57.274Z4.744° NNE2024-12-02 18:16:57.274Z269.514° W42.344°2024-12-02 18:20:57.274Z207.479° SW
6 mins2024-12-03 03:54:57.274Z105.018° ESE2024-12-03 03:57:57.274Z61.005° ENE22.185°2024-12-03 04:00:57.274Z20.463° NNE
8 mins2024-12-03 05:33:57.274Z197.997° SSW2024-12-03 05:36:57.274Z246.795° WSW33.963°2024-12-03 05:41:57.274Z330.309° NNW
|